User: anonymous   Login
Location: Guayaquil
(2.1667°S, 79.9000°W)
Time: 22:08:46
(UTC-05:00)
Language:

NEE 01 PEGASUS - Orbit

View from above orbital plane
View from above orbital plane
View from above satellite
View from above satellite

Ground track
Ground track

The orbit data is extracted from the following two-line orbital elements,

1 39151U 13018B   19289.20593105  .00000156  00000-0  27509-4 0  9995
2 39151  97.9738  24.7765 0017346 170.4669 189.6875 14.80081894349406
Epoch (UTC): 16 October 2019 04:56:32
Eccentricity: 0.0017346
inclination: 97.9738°
perigee height: 617 km
apogee height: 641 km
right ascension of ascending node: 24.7765°
argument of perigee: 170.4669°
revolutions per day: 14.80081894
mean anomaly at epoch: 189.6875°
orbit number at epoch: 34940

The dashed part of the orbit path shows where the satellite is in the earth's shadow,  

DLR